Location: Hradec Kralove
(50.2170°N, 15.8330°E)
Time: 21:38:56
(UTC+01:00)

Vanguard 3 - Pass Details

Date: 06 December 2023
Orbit: 508 x 3239 km, 33.4° (Epoch: 26 February)

Event Time Altitude Azimuth Distance (km) Brightness Sun altitude
Rises 18:44:03 0° 193° (SSW) 6,858 12.1 -26.0°
Reaches altitude 10° 18:53:29 10° 168° (SSE) 5,251 11.2 -27.5°
Maximum altitude 18:57:49 12° 151° (SSE) 4,737 10.8 -28.2°
Enters shadow 18:59:30 11° 143° (SE) 4,612 10.7 -28.5°
